Theta_e
347 346 342 337 332 331 329 325 324 325 326 327 329 329 329 328 328 327 326 326 326 328 330 331 334 336 337 336 333 331 330 331 333 333 327 316 319 329 334 335 335 334 331 320 316 321 319 316 316 315 314 314 314 313 313 316 321 325 329 330 331 332 331 332 332 332 332 332 332 332 332 333 332 331 329 327 326 328 331 329 328 328 323 321 322
346 344 340 336 332 331 328 324 324 325 326 327 328 328 328 329 328 328 327 327 326 327 328 329 331 334 336 335 330 329 330 333 335 331 320 317 327 334 335 335 334 334 332 322 314 316 316 317 317 315 316 315 313 313 312 312 314 318 325 328 330 331 331 330 330 330 329 329 329 330 331 331 331 330 328 324 325 329 330 329 329 326 320 319 321
346 344 339 335 332 331 329 327 325 324 325 327 328 329 329 329 329 329 328 328 329 328 328 328 330 334 335 332 329 329 333 336 333 323 317 324 334 336 335 335 334 334 332 325 316 314 316 319 318 318 317 315 314 312 311 311 310 312 316 322 327 330 330 329 328 328 329 330 331 331 330 329 329 329 327 324 325 328 329 328 326 321 320 319 318
346 344 339 335 331 330 331 329 327 326 326 327 327 329 329 330 330 329 330 331 332 331 329 329 330 333 333 330 329 332 336 335 324 316 323 333 336 335 336 335 335 334 331 325 318 315 316 319 319 319 318 317 315 313 312 310 309 309 309 313 321 328 328 327 327 328 330 332 332 332 331 330 329 328 326 325 324 324 323 323 322 321 323 321 319
345 344 339 335 331 330 331 330 329 328 327 327 327 328 329 329 330 331 332 332 333 332 332 332 331 332 331 330 332 336 336 329 317 318 330 336 336 336 336 335 334 334 332 324 318 317 318 320 320 320 319 318 316 314 312 311 310 308 308 307 314 326 327 324 326 327 330 332 334 333 333 331 328 327 327 324 322 322 321 321 324 325 325 322 322
344 343 339 334 330 330 330 330 330 329 328 328 328 328 328 329 330 331 331 332 332 331 333 333 333 333 332 332 335 338 331 321 318 325 333 336 336 336 335 335 333 333 332 324 318 319 321 321 322 322 320 319 317 314 312 311 311 310 312 311 313 323 325 323 326 327 328 331 334 334 333 331 329 328 327 324 320 324 326 325 327 327 326 324 322
343 341 340 335 331 331 331 331 329 329 328 328 328 327 328 329 329 330 331 331 331 330 330 333 334 335 335 336 337 336 325 317 321 329 334 337 336 335 335 334 334 333 331 326 321 320 322 323 323 322 320 320 318 315 313 312 312 315 319 320 319 323 325 325 328 329 329 330 331 334 333 330 329 327 327 326 320 324 328 328 329 328 327 326 322
341 341 340 336 333 331 331 330 329 329 328 328 328 328 328 329 330 331 331 330 331 329 329 332 335 336 337 337 338 332 320 317 326 331 335 337 335 335 335 335 335 334 331 327 324 323 324 324 323 323 322 321 317 316 314 313 314 318 323 325 326 326 327 328 329 330 330 331 331 333 332 330 330 327 326 325 321 324 327 328 329 328 328 325 320
341 341 339 338 334 331 331 329 329 329 328 328 327 327 328 329 330 331 332 331 330 330 330 333 335 338 338 338 336 326 316 321 330 333 335 335 335 335 335 335 335 334 333 328 324 325 325 325 324 324 324 321 318 317 315 316 318 320 324 326 326 326 326 327 327 329 331 332 331 331 330 330 330 325 325 323 320 326 328 328 328 328 327 324 319
341 340 340 339 336 332 332 330 330 331 329 328 327 327 327 327 330 331 331 330 330 332 334 334 336 338 338 338 332 320 319 327 333 334 334 335 334 335 334 334 334 334 334 330 325 324 326 327 326 325 324 322 320 318 316 317 320 322 325 326 326 326 326 325 325 328 331 329 328 330 329 330 329 322 324 324 319 325 329 328 326 326 324 322 320
339 338 340 339 337 334 332 332 332 332 330 328 328 326 326 326 328 330 331 330 331 333 336 335 336 337 338 337 326 318 326 332 333 334 334 334 334 334 333 333 333 334 334 333 330 326 324 327 326 325 324 323 320 319 318 317 320 323 326 327 327 327 326 326 325 326 328 327 328 330 329 328 328 322 323 325 321 322 326 326 322 323 323 321 320
337 337 339 338 337 335 332 332 332 332 331 330 329 326 325 326 328 330 330 331 332 335 335 335 337 337 338 335 322 321 331 334 333 333 333 333 333 332 331 330 330 330 331 333 333 328 323 325 325 325 325 323 321 319 318 318 320 324 326 327 327 326 325 325 324 324 325 328 329 329 328 324 324 322 319 321 322 322 323 324 321 320 323 322 319
337 337 338 337 337 336 332 332 332 333 333 331 329 325 325 326 329 330 331 332 333 336 336 336 337 337 337 330 320 326 334 334 334 334 333 332 331 331 330 329 328 326 325 328 331 328 323 324 324 325 325 324 322 320 319 318 321 324 326 325 325 326 326 324 323 325 325 327 327 326 326 319 316 318 317 319 321 320 319 321 320 318 321 321 318
337 337 337 338 338 336 333 331 332 333 333 332 328 327 327 328 329 330 331 332 333 336 337 337 337 338 337 326 320 329 334 334 335 334 333 331 330 330 330 330 328 323 322 323 325 325 323 323 324 325 325 324 323 322 320 320 320 322 325 327 327 327 328 326 324 325 325 326 325 322 322 314 311 315 318 321 322 319 317 315 316 318 318 318 317
338 338 337 338 338 336 333 332 332 333 333 331 328 329 329 330 330 331 332 332 334 335 337 338 337 338 334 323 323 332 334 334 335 334 333 332 330 331 332 332 327 321 321 320 318 320 323 323 324 325 325 324 323 323 322 321 320 320 324 327 328 329 329 329 327 326 324 326 325 323 321 312 309 313 317 322 324 321 320 315 312 316 316 317 318
339 339 339 338 337 335 333 332 332 333 333 331 329 329 330 330 330 331 332 332 335 335 336 338 338 339 329 321 329 333 334 335 335 334 334 333 333 332 333 332 326 320 319 318 315 316 322 323 324 325 324 325 324 324 323 322 321 320 324 327 328 329 328 329 327 326 325 326 326 323 319 310 308 312 314 319 323 322 322 319 314 314 314 316 316
340 340 340 339 337 335 333 332 333 333 333 332 330 330 330 330 330 331 332 333 335 335 336 337 338 337 325 323 332 333 334 335 335 335 335 334 334 334 333 331 325 319 317 315 312 314 321 323 323 325 324 324 324 324 323 323 322 321 324 326 328 328 328 327 325 325 326 325 326 324 319 311 308 310 312 315 319 320 319 318 316 314 314 313 313
340 341 340 339 338 335 333 333 333 333 333 333 332 331 330 330 330 331 331 332 334 335 336 336 338 334 322 326 333 333 335 335 335 335 335 335 334 334 332 330 324 317 315 313 310 313 320 323 323 324 323 324 324 323 323 323 323 323 325 326 327 328 328 327 326 327 327 327 326 326 324 315 307 307 311 313 315 317 315 314 314 314 315 311 310
340 341 342 341 340 336 333 333 333 334 334 332 332 333 331 330 330 330 331 331 333 335 336 336 337 331 322 328 333 333 335 335 336 335 336 336 334 334 332 329 322 316 315 312 311 314 319 322 323 324 323 324 323 323 323 323 323 324 326 327 328 329 329 329 329 329 327 327 327 328 325 313 308 307 308 312 312 313 312 311 311 313 314 310 308
339 340 342 342 341 338 336 336 335 335 336 333 333 334 331 331 331 331 332 332 334 334 335 336 335 329 322 327 333 333 334 335 335 335 335 335 334 333 332 328 320 316 314 313 314 316 319 321 322 323 323 323 322 322 322 323 324 324 325 327 328 328 329 329 330 330 328 328 326 325 320 311 309 307 306 309 309 309 309 309 310 310 310 308 308
339 340 342 342 342 340 340 340 338 335 336 335 335 335 332 331 332 331 332 333 333 334 335 335 333 327 321 325 332 333 334 334 335 335 335 335 334 333 332 328 320 316 314 314 316 317 318 320 321 322 323 323 322 322 321 322 324 325 327 328 330 329 327 329 330 330 329 329 328 325 318 311 310 309 307 307 307 308 308 308 309 309 308 308 307
340 340 342 342 342 341 340 340 339 337 335 334 335 335 332 332 332 330 330 332 334 334 335 334 330 325 322 327 332 333 333 334 334 335 334 334 334 333 331 327 320 316 314 314 315 316 317 318 320 321 322 322 322 322 321 323 325 328 330 331 333 331 329 329 330 330 331 330 330 326 319 312 309 309 308 307 307 307 308 308 308 308 308 307 307
341 340 341 342 341 340 338 337 339 339 334 332 334 334 333 332 333 331 329 332 334 334 334 333 330 327 326 329 332 332 332 333 334 335 335 335 335 331 329 324 319 317 315 313 313 315 316 317 318 319 320 321 322 323 325 328 330 331 332 333 333 332 331 331 330 331 331 330 326 319 316 312 309 310 310 308 307 307 308 307 307 308 307 307 307
342 341 342 341 340 339 337 337 339 339 334 331 333 334 334 333 333 333 332 332 334 335 334 333 332 330 331 331 332 333 332 333 334 335 335 335 335 331 326 321 318 318 318 316 314 314 314 315 316 317 317 319 322 327 330 331 332 333 333 333 333 332 333 332 332 332 331 330 322 313 313 312 308 310 311 309 307 307 307 307 307 307 306 307 306
343 342 341 339 338 339 338 338 338 338 336 334 335 335 335 333 332 333 333 333 333 335 334 332 332 333 333 331 332 333 333 334 334 335 335 335 334 329 323 319 318 319 322 323 320 319 317 313 313 314 314 317 324 329 331 332 331 332 333 333 333 333 334 332 332 332 331 329 319 312 314 311 308 310 311 311 309 308 307 306 306 306 306 306 306
343 341 340 338 336 338 339 338 338 337 337 337 336 335 334 334 332 330 331 334 334 334 334 332 331 333 332 331 333 333 333 333 333 335 335 335 335 331 324 318 319 320 325 330 328 327 325 318 314 314 317 321 328 330 330 331 331 332 333 333 334 333 333 333 332 331 332 330 318 312 313 309 308 309 310 311 310 309 308 307 306 306 306 306 306
342 340 339 337 335 338 338 338 338 337 337 337 335 335 334 333 332 330 332 334 335 334 334 332 332 333 331 331 333 333 334 333 333 335 336 336 336 333 328 324 326 326 328 333 332 331 331 327 323 325 328 329 330 331 330 331 331 333 333 333 333 333 333 332 332 331 332 329 317 312 312 308 307 308 309 310 310 310 309 308 308 307 307 307 307
342 340 340 338 336 337 337 335 337 337 337 337 334 332 333 333 331 333 334 334 334 334 334 333 332 332 330 331 334 332 334 335 334 335 336 335 334 333 332 331 332 331 330 334 334 331 332 332 331 332 332 331 331 329 330 331 331 332 332 334 333 333 333 332 332 332 331 329 319 313 312 309 309 309 308 309 309 309 309 308 308 308 308 308 308
343 342 339 337 337 337 336 335 335 336 335 335 333 329 330 331 330 332 334 332 333 333 333 333 332 332 331 331 334 333 333 335 334 335 334 333 333 332 333 332 332 332 331 332 333 330 332 333 332 332 331 330 330 328 329 331 331 332 332 333 333 333 333 332 332 332 331 331 323 315 313 311 311 311 311 311 310 310 310 308 308 307 308 308 308
343 343 340 337 338 338 336 335 334 335 333 333 332 329 328 330 331 332 333 331 330 331 333 333 332 332 331 331 333 333 333 334 334 334 332 332 333 331 333 332 331 333 331 331 332 331 332 332 330 331 331 330 330 329 330 331 332 332 333 333 332 331 332 332 332 332 332 332 326 318 317 315 313 313 312 312 312 312 311 310 310 308 306 306 307
342 342 341 338 337 337 336 335 334 333 333 332 330 330 329 328 329 331 332 331 329 330 332 332 332 330 330 330 330 331 334 334 333 333 333 332 333 331 332 333 332 333 331 332 333 332 332 332 331 332 331 331 330 331 330 331 333 333 333 333 331 331 332 332 332 332 332 333 329 324 322 321 319 317 314 313 312 313 313 313 313 312 309 306 306
341 342 341 339 338 337 336 335 334 333 332 332 331 331 331 329 328 327 330 333 330 330 331 331 332 330 329 330 330 330 331 333 334 334 333 332 332 330 331 333 333 333 332 333 333 333 333 333 333 333 332 333 332 332 333 333 334 334 333 332 331 332 332 332 333 333 332 333 333 331 328 326 324 323 320 317 314 313 313 313 314 315 314 311 309
341 341 340 340 339 338 336 336 334 333 332 332 331 331 331 330 329 326 329 333 332 331 332 331 331 329 329 330 330 330 329 331 335 335 334 333 332 329 330 332 332 332 332 333 333 333 334 334 334 335 333 334 335 334 335 334 334 334 333 332 332 331 332 333 333 333 333 333 334 334 333 330 327 326 326 323 320 317 314 313 313 314 315 315 314
340 340 340 340 338 337 337 337 336 334 332 331 331 330 331 331 331 329 329 333 333 332 332 332 330 328 329 330 329 328 329 332 335 336 335 334 334 330 330 332 331 332 332 332 333 332 334 335 334 335 335 334 335 335 335 335 334 333 332 332 332 331 331 332 332 333 333 333 334 334 334 332 330 329 328 327 326 323 320 316 314 313 314 314 315
340 339 339 339 337 336 336 336 336 335 333 331 330 330 330 331 332 332 331 332 334 334 333 332 330 328 329 331 329 326 329 332 334 336 336 336 336 332 332 333 331 332 332 331 334 333 333 335 334 334 334 334 334 335 334 334 333 332 332 332 332 331 331 331 332 333 333 333 334 334 333 333 332 331 329 329 328 328 326 323 319 317 315 314 314
338 339 338 339 338 336 336 335 334 334 333 332 331 330 330 330 332 332 331 333 335 335 334 333 330 328 329 330 328 326 329 331 332 334 335 335 335 333 333 332 330 332 333 332 333 333 332 334 335 334 334 334 334 334 333 333 332 332 332 331 331 330 331 332 332 333 333 333 334 334 333 333 334 332 331 330 330 329 329 328 325 322 320 318 316
336 339 338 339 339 337 336 335 334 334 333 333 332 330 331 331 331 331 331 334 335 334 334 333 331 329 328 328 327 327 329 330 331 333 333 334 334 333 333 332 332 332 332 331 330 332 332 332 334 335 334 334 334 333 333 332 332 332 331 330 330 329 330 331 332 331 332 333 334 334 334 334 334 334 333 332 331 331 330 330 329 327 326 324 323
334 338 338 338 340 339 337 336 335 334 333 333 333 333 333 333 332 332 333 334 335 334 333 332 331 330 328 330 330 328 328 329 331 331 330 331 332 333 333 332 334 332 330 331 330 331 334 332 332 333 333 334 334 334 333 332 332 330 330 328 328 328 328 330 331 331 331 333 333 333 334 334 334 335 334 333 333 333 332 332 331 330 329 328 327
334 338 339 337 338 340 339 337 336 335 334 334 334 334 334 334 332 334 334 334 334 334 332 331 331 331 328 330 332 329 328 330 331 331 329 329 330 332 334 332 332 330 329 331 329 328 332 333 331 330 329 331 333 335 334 332 331 330 328 328 327 327 327 329 330 330 331 332 333 333 334 334 334 335 334 334 334 335 334 333 333 332 331 330 330
333 338 340 338 337 338 338 338 337 336 336 334 334 334 334 334 333 334 334 334 333 333 332 331 331 330 329 330 333 331 329 332 332 332 331 329 329 332 333 332 331 331 330 328 325 327 331 333 332 328 326 329 332 334 335 333 332 330 327 327 327 326 327 328 327 327 328 330 332 334 334 334 334 334 334 334 335 336 336 335 334 334 333 332 332
336 337 339 339 337 337 337 337 336 337 336 335 334 333 334 334 334 334 334 333 333 333 333 332 331 332 332 330 331 331 330 333 333 333 331 331 331 331 332 333 332 332 332 329 327 329 331 332 332 329 329 331 332 333 335 335 335 333 329 327 326 326 327 327 326 326 326 327 330 333 334 334 334 334 334 334 335 336 337 336 335 335 334 334 334
334 335 338 340 339 339 338 337 337 337 337 336 335 335 334 334 333 334 334 333 333 333 333 333 332 333 334 332 330 330 333 334 333 332 332 331 332 332 333 333 332 332 333 331 329 330 332 332 333 331 330 332 333 333 335 336 336 335 333 331 328 328 327 327 327 327 327 327 328 330 332 332 333 334 333 334 335 335 336 336 336 335 335 335 334
331 332 335 338 340 340 340 339 338 338 338 337 336 335 334 334 334 334 333 333 333 333 332 333 333 335 334 333 333 333 334 335 333 332 333 332 333 333 333 333 333 332 333 333 331 330 331 333 333 332 331 332 334 335 335 335 334 334 335 333 331 330 327 328 329 328 327 326 326 327 329 329 331 332 331 333 335 334 335 336 336 336 335 334 331
332 330 333 336 338 340 339 339 340 339 339 338 337 336 335 335 335 334 332 332 331 331 331 331 333 334 332 332 335 335 334 335 333 334 334 333 333 334 333 333 333 332 332 333 332 331 331 333 333 333 334 335 335 335 335 333 331 331 334 335 332 330 330 331 331 329 327 326 326 326 326 326 328 331 332 333 335 335 335 335 335 334 333 332 331
332 328 328 331 334 338 339 338 339 339 339 339 337 336 335 335 335 334 333 332 332 331 331 332 332 331 329 331 335 334 332 333 333 333 334 334 334 334 333 333 332 332 332 332 332 333 333 333 334 334 335 336 336 335 335 332 328 328 331 333 332 332 334 334 332 330 328 327 328 328 328 328 329 332 334 333 333 335 335 334 334 334 333 332 330
332 328 327 328 330 334 339 339 338 338 339 338 337 336 336 335 335 334 334 333 333 332 332 332 332 331 331 332 332 331 330 331 332 333 333 333 334 334 334 333 332 332 332 331 332 333 333 333 333 333 333 334 334 335 334 332 330 328 328 331 332 333 334 333 332 331 330 329 328 330 331 331 331 333 335 334 332 332 333 334 335 336 335 331 328
334 330 328 329 329 332 337 339 338 337 337 338 337 336 335 335 335 333 333 332 332 332 330 331 332 332 333 332 328 328 329 328 329 330 330 331 332 334 334 334 333 332 332 332 332 332 332 333 332 332 332 332 333 333 332 332 332 329 328 329 330 332 333 331 332 332 332 332 329 329 332 332 333 334 335 335 333 331 333 335 334 334 334 331 327
337 333 328 328 328 330 335 337 337 337 338 338 338 337 335 334 334 333 332 332 332 331 330 332 332 332 333 330 327 328 327 327 326 326 328 329 328 331 334 334 333 332 332 332 333 332 333 333 333 333 333 333 334 333 331 331 331 329 329 330 329 331 330 329 332 333 332 332 330 329 330 331 334 334 334 334 333 333 334 334 333 332 332 330 328
339 332 327 326 326 329 334 336 336 337 339 339 337 336 334 333 333 333 332 332 332 332 332 332 331 331 331 328 327 328 327 326 326 325 327 328 328 328 330 332 332 333 332 332 333 333 333 333 333 333 333 333 333 332 332 331 330 330 331 330 329 329 329 329 332 332 330 330 331 330 329 330 332 332 331 333 334 334 334 334 333 333 332 331 330
340 335 330 327 326 327 330 333 335 336 339 340 337 335 334 333 333 333 333 334 333 333 332 332 330 329 328 328 329 329 328 327 327 326 325 327 328 327 326 327 328 330 330 332 333 333 333 333 332 331 331 332 332 332 332 330 328 330 330 330 329 328 328 330 332 331 329 330 331 330 329 330 330 329 327 329 332 334 335 335 334 333 332 331 329
342 339 335 328 325 325 326 331 334 335 338 340 338 335 334 334 334 333 333 334 334 333 333 332 331 328 327 328 330 330 329 328 327 326 325 328 331 330 328 327 326 326 327 331 333 333 333 332 331 331 331 331 330 330 331 328 326 328 329 329 330 329 330 331 332 331 330 330 331 331 330 331 331 330 329 329 332 334 335 334 333 332 332 329 328
Wind_Speed
5 7 10 9 9 11 12 12 11 11 11 12 12 12 12 12 11 10 9 8 7 6 4 3 2 2 3 3 1 2 2 3 4 5 5 7 9 10 10 11 12 12 11 10 10 12 12 12 13 13 13 12 12 11 10 9 8 8 9 10 11 12 13 13 13 13 13 12 11 11 11 11 11 11 10 9 8 9 11 7 4 6 7 8 9
5 10 11 10 10 11 12 11 11 11 11 11 11 11 11 11 10 9 9 8 7 6 4 3 2 2 2 2 1 1 2 4 4 4 5 8 10 10 10 11 11 12 11 10 11 12 13 14 13 13 13 12 12 11 10 9 8 7 8 9 10 11 13 13 14 14 13 12 11 11 9 9 9 9 9 9 8 9 9 5 2 5 7 8 8
7 12 11 11 10 11 11 11 10 10 11 10 10 10 10 10 9 8 8 7 7 6 4 3 2 2 2 2 2 2 4 4 3 4 6 10 11 10 10 10 11 11 10 9 10 12 14 14 13 12 12 12 12 11 11 10 9 8 7 7 10 12 13 15 17 17 15 13 11 11 11 8 7 7 8 8 8 8 7 2 2 6 7 8 8
9 12 12 11 11 11 12 11 10 9 10 9 9 9 9 9 8 7 7 7 6 5 4 3 3 3 3 2 2 3 4 4 3 6 9 10 10 11 10 10 10 10 9 9 9 11 13 13 12 12 11 12 12 12 12 12 11 10 8 7 10 13 16 18 18 17 15 14 12 11 11 10 7 5 6 7 7 6 4 3 4 7 9 10 11
10 11 13 13 12 13 12 12 10 9 9 9 9 9 8 8 7 7 7 7 5 5 4 3 3 3 3 3 3 4 4 4 5 8 9 9 10 11 11 10 10 10 10 10 10 11 13 12 11 10 10 11 12 12 13 13 13 12 12 10 12 15 19 21 19 17 14 13 14 12 10 10 10 6 5 6 7 6 6 7 8 9 9 11 12
11 12 14 14 13 13 12 12 11 10 10 9 9 9 9 8 7 7 6 7 6 5 5 4 4 4 4 4 5 4 4 5 7 8 8 9 10 11 11 10 10 10 11 11 11 11 12 11 10 9 10 11 12 12 13 15 15 16 18 18 17 19 20 19 18 17 14 12 11 9 8 9 10 8 6 6 7 9 10 9 9 10 9 9 11
13 12 13 15 14 13 12 12 12 11 10 9 9 9 9 8 7 7 7 6 6 5 5 5 5 5 6 6 6 4 4 6 7 7 7 9 11 11 11 10 11 11 11 12 11 12 12 10 10 10 11 11 12 12 14 16 18 20 24 26 24 22 20 17 16 15 15 13 8 7 7 8 10 8 5 6 6 10 10 9 8 9 8 5 6
14 12 12 15 14 13 12 12 12 11 10 9 9 9 9 9 8 7 8 7 6 6 5 6 6 6 6 6 6 4 4 6 7 7 7 10 11 11 11 10 11 11 12 13 12 12 12 11 12 11 10 11 12 13 15 18 21 23 25 27 26 22 19 16 15 15 17 15 9 9 3 7 10 7 3 6 7 11 8 7 7 7 6 3 5
13 11 12 14 14 14 13 12 12 11 11 10 9 10 10 9 9 9 8 7 6 6 5 5 6 6 6 7 5 4 5 6 8 8 8 9 10 10 10 10 11 11 12 13 12 12 11 12 12 11 11 11 12 13 15 19 22 24 26 26 24 22 20 18 16 15 17 12 6 4 3 7 7 3 5 6 7 11 8 6 4 4 5 4 6
13 11 11 13 14 14 14 13 12 11 10 10 9 9 10 9 9 10 9 8 7 6 6 6 7 6 7 7 5 5 6 7 8 8 9 9 8 9 10 10 10 10 10 12 12 11 10 11 11 11 11 12 12 13 15 17 20 23 25 25 23 21 20 19 18 17 15 7 2 3 6 9 8 4 4 5 6 9 9 5 2 3 4 5 6
14 13 12 12 13 14 14 14 12 11 10 9 9 9 9 9 10 10 9 9 7 7 8 8 8 8 8 7 4 6 7 8 9 8 9 8 8 8 9 9 8 8 9 9 10 10 9 10 11 11 11 12 12 12 14 16 18 21 23 23 21 20 19 18 18 18 12 4 4 2 3 6 7 5 3 1 3 6 8 5 2 1 4 5 7
14 14 13 12 13 14 14 14 12 11 10 9 9 9 9 10 10 10 10 10 9 9 9 9 9 10 9 6 5 7 8 9 9 8 9 8 8 8 8 8 7 7 7 7 8 9 9 10 11 11 11 11 11 12 14 16 17 19 21 21 21 20 21 19 17 16 10 6 7 5 2 4 6 7 5 2 3 5 7 5 2 1 5 6 8
15 14 15 13 14 14 14 13 12 11 10 10 9 9 10 10 10 11 11 10 9 10 9 9 10 11 9 6 7 8 9 9 9 8 8 8 8 8 8 7 6 5 5 6 7 8 10 11 11 10 10 10 11 12 13 16 18 19 20 21 21 21 20 18 17 13 9 8 5 4 4 10 10 6 1 4 4 6 8 7 5 2 7 7 8
15 14 15 14 14 15 14 14 12 11 10 9 9 9 10 11 11 11 11 10 9 9 9 9 10 10 9 7 8 9 9 9 9 8 8 8 8 8 7 6 5 4 5 6 7 8 11 11 11 10 10 10 11 12 13 14 14 14 16 19 20 19 17 16 16 10 7 7 4 5 5 12 8 1 4 6 5 5 7 8 8 5 5 7 9
14 14 14 14 15 15 14 13 12 11 10 9 9 9 10 11 11 11 10 10 9 9 9 10 10 9 8 8 10 9 9 9 9 8 8 8 8 6 5 4 3 3 5 7 8 9 13 12 11 11 10 11 11 12 12 13 13 12 13 18 17 15 15 15 15 10 5 5 5 5 6 12 8 1 5 7 6 6 6 7 7 6 4 7 9
15 14 13 14 14 15 14 14 12 11 10 9 9 9 10 11 11 10 10 10 10 10 10 11 11 9 8 10 10 9 9 9 9 8 7 8 7 6 4 3 2 2 5 6 8 11 14 13 12 11 11 11 11 11 11 12 13 14 15 18 16 15 15 14 15 11 6 5 5 6 9 13 8 2 5 7 6 6 7 7 7 7 6 7 9
16 15 14 14 13 14 14 14 12 10 9 9 10 10 10 11 11 10 10 10 11 11 11 11 11 9 9 10 10 9 9 9 9 8 7 7 6 5 3 2 1 2 4 6 9 14 16 14 13 12 11 11 11 11 11 11 12 14 16 17 16 15 14 12 13 10 5 6 7 5 10 12 8 4 5 6 6 7 8 8 7 8 8 8 9
16 15 14 13 12 13 13 13 12 11 9 9 10 10 11 11 11 11 10 11 11 12 11 11 11 10 10 11 10 9 9 10 9 7 6 6 5 5 4 1 2 3 4 6 12 17 18 15 13 12 11 11 11 10 10 10 11 13 16 16 16 15 12 11 12 9 5 6 7 6 10 11 7 4 5 5 6 7 7 7 6 7 8 9 9
16 15 14 13 12 13 13 12 12 12 10 9 10 10 11 11 11 11 11 12 11 11 11 11 11 10 11 12 11 10 9 9 9 7 6 6 5 4 3 0 2 3 5 8 15 19 18 16 13 12 11 10 10 9 9 9 9 12 15 16 16 14 11 10 9 8 6 5 6 8 10 9 6 3 4 5 6 6 6 6 6 6 8 9 8
17 16 15 14 13 13 13 12 11 11 10 11 11 11 12 12 12 12 11 11 11 11 10 11 11 10 12 13 12 10 10 10 9 8 7 6 6 4 2 0 3 3 5 10 15 18 17 15 14 12 11 10 9 9 7 7 8 9 12 13 13 10 9 10 9 6 6 6 6 7 8 6 4 2 2 4 6 6 7 7 8 8 8 9 8
18 18 16 15 14 14 13 10 10 11 11 11 11 12 13 13 13 12 11 11 11 11 11 12 11 10 11 12 12 11 10 10 10 8 7 7 6 4 3 1 3 3 5 9 13 15 15 14 13 12 10 10 9 8 7 6 6 6 6 8 7 6 6 10 9 4 6 7 7 7 7 4 2 1 1 3 5 7 8 8 8 8 8 8 8
18 18 16 16 16 14 12 10 11 12 12 12 11 12 13 14 13 12 12 11 12 12 13 13 11 11 12 12 12 12 11 10 9 9 8 7 6 5 3 1 2 3 5 8 11 13 13 13 12 11 10 10 9 8 7 6 5 5 4 4 4 4 6 10 9 3 5 6 8 9 8 4 2 1 2 3 5 7 8 9 8 7 7 7 7
18 18 16 15 14 14 13 13 13 12 12 12 12 12 13 14 12 11 12 12 13 13 14 13 11 12 12 12 13 12 11 10 9 9 8 8 7 5 3 1 2 4 6 8 9 11 11 11 10 10 10 10 9 7 6 4 4 4 4 3 3 5 6 8 8 3 6 5 8 9 8 4 4 3 3 4 5 7 8 8 8 7 7 6 5
15 17 15 14 13 14 14 14 14 12 12 13 12 12 13 14 13 11 11 12 12 13 14 13 13 13 12 13 13 12 11 11 10 10 10 10 8 6 4 3 3 5 7 9 9 10 10 11 11 11 10 9 7 6 3 4 4 2 2 3 4 6 4 4 5 4 8 5 7 6 4 3 5 5 4 4 5 6 7 8 8 7 6 6 5
15 15 15 14 14 15 15 15 15 13 14 14 13 13 13 14 13 11 11 13 14 14 14 14 15 15 14 13 13 11 11 11 10 10 11 11 9 7 5 4 4 6 7 9 9 8 9 11 11 11 10 9 7 8 6 8 7 4 2 2 4 3 1 2 4 6 8 6 6 5 2 2 5 6 4 5 5 5 6 7 7 7 7 6 5
16 15 14 14 16 17 16 16 16 15 16 15 12 12 13 14 13 13 13 14 15 15 14 15 16 16 16 15 13 11 11 12 11 10 10 10 9 7 6 6 6 6 6 6 5 3 4 9 10 9 8 8 7 7 6 7 6 5 3 1 1 2 3 3 3 6 6 6 5 3 1 2 5 6 5 5 5 5 6 7 7 8 7 7 6
15 14 13 14 16 18 18 17 16 16 16 14 12 12 13 14 13 14 15 15 16 16 15 16 16 16 15 14 12 11 11 12 12 11 10 10 9 6 6 5 5 4 4 5 3 2 1 4 5 5 4 4 3 3 6 8 7 5 4 3 3 3 3 3 3 5 5 5 5 2 1 2 5 6 6 6 5 5 6 7 8 8 8 8 7
12 11 12 13 14 17 17 16 17 18 16 14 13 13 13 14 14 14 16 16 16 16 16 16 17 16 15 14 11 10 11 12 13 11 10 9 7 5 7 6 5 6 5 9 8 5 0 1 1 1 1 2 4 6 8 9 8 6 5 5 3 4 4 4 4 5 7 5 4 2 1 3 4 5 6 6 6 6 6 6 7 8 8 8 8
12 12 13 12 12 15 16 16 17 18 16 15 14 14 13 15 15 15 16 16 15 16 16 17 17 17 16 15 11 8 8 9 10 10 9 9 6 7 13 12 8 10 7 11 10 7 4 5 5 5 5 7 8 8 8 9 8 5 5 5 3 4 4 5 6 5 8 6 2 2 0 2 3 4 5 6 7 7 7 7 7 8 8 8 8
11 12 13 12 11 13 16 17 18 18 17 16 16 15 15 16 15 15 17 17 16 15 16 18 19 18 18 16 13 11 11 9 9 9 8 9 9 11 16 13 8 12 9 10 13 11 10 9 10 9 7 7 8 8 9 8 7 5 5 4 3 4 5 5 6 6 8 6 1 1 1 0 1 2 4 5 6 8 8 8 8 8 9 9 8
12 13 13 14 13 13 15 17 18 18 18 18 17 15 16 17 16 17 18 18 17 16 18 19 19 20 19 17 16 16 15 13 14 14 13 13 14 16 16 11 9 13 12 12 14 15 14 11 11 11 9 9 10 9 8 8 7 5 4 5 4 4 5 5 5 6 8 8 3 1 0 1 1 0 2 4 6 7 8 8 8 8 8 9 9
14 14 13 13 13 14 15 16 17 18 18 19 18 16 16 18 19 20 19 18 18 18 19 20 20 20 19 17 17 17 16 15 17 19 19 19 16 16 16 13 12 13 13 13 14 14 13 11 11 12 12 11 11 10 7 8 8 7 7 8 8 7 6 5 5 6 7 9 7 5 4 3 2 1 0 1 4 6 7 8 8 7 8 8 8
14 15 14 14 15 15 16 16 17 19 20 20 19 17 17 18 20 19 18 18 19 20 20 20 20 19 18 18 17 16 16 17 18 19 19 19 16 14 14 12 13 13 12 12 13 12 11 11 11 11 12 11 9 9 8 9 10 10 11 10 10 10 9 8 8 7 7 9 9 7 6 6 4 3 2 1 1 3 5 7 8 8 8 8 9
15 15 14 15 17 17 17 17 17 19 21 20 19 18 18 18 18 17 17 18 20 21 21 21 20 20 18 18 18 17 17 17 17 17 16 15 14 14 14 13 13 11 13 12 12 13 12 12 12 9 9 9 7 9 10 11 10 10 10 10 10 10 11 10 10 9 9 8 8 7 7 6 6 5 5 3 2 2 2 4 6 7 8 9 9
15 15 12 14 17 19 19 18 18 18 19 19 18 17 17 18 18 17 16 18 20 22 24 23 21 21 18 17 18 18 17 17 16 15 15 15 14 15 16 14 15 12 14 14 13 13 12 11 9 8 9 8 8 10 11 10 9 9 9 9 9 10 11 11 9 9 10 9 7 7 8 7 7 7 6 6 4 3 2 2 1 3 5 7 8
16 14 12 13 15 18 19 18 19 19 18 18 17 17 18 19 18 17 17 17 20 23 26 25 22 21 18 17 19 19 17 17 17 17 17 16 15 16 16 13 14 15 16 16 14 12 12 12 10 9 10 8 8 11 11 10 9 9 9 9 8 8 9 10 9 9 11 9 7 8 10 9 8 9 8 7 6 4 4 3 1 1 1 2 3
16 15 12 12 13 16 17 17 19 19 19 18 18 19 19 18 17 17 17 17 20 22 24 24 23 21 19 17 19 19 18 18 18 19 18 17 16 16 15 15 14 18 17 14 13 12 10 12 12 11 11 9 8 10 11 10 10 9 9 10 9 8 8 9 9 9 11 10 8 8 10 10 10 11 9 9 8 6 5 4 3 2 1 1 1
16 16 14 12 12 14 14 15 18 19 19 19 19 20 19 18 16 16 17 18 21 21 21 22 22 22 20 19 19 20 20 19 19 20 19 18 16 15 16 16 15 16 15 14 14 13 11 13 13 12 12 11 8 10 11 9 8 8 9 9 9 10 9 9 9 8 9 10 10 8 8 10 12 12 10 10 10 9 7 6 5 4 3 3 2
17 17 14 12 12 13 13 15 17 18 19 20 20 20 20 19 18 18 20 20 22 22 22 22 22 22 22 20 19 21 22 20 19 20 19 18 17 17 16 14 13 13 15 17 16 15 12 12 13 13 13 12 9 9 11 8 8 8 8 8 8 9 9 9 9 9 9 10 10 9 9 11 12 12 12 12 12 11 10 8 7 5 4 4 3
17 18 16 14 14 13 13 16 16 16 19 21 20 21 21 20 19 20 22 22 23 23 23 22 23 23 22 21 19 20 21 21 20 20 20 19 19 18 15 12 13 14 14 16 16 14 13 14 15 14 12 11 10 9 10 8 8 9 8 7 7 8 10 10 10 11 11 11 11 12 13 12 11 12 13 14 14 13 11 10 9 7 6 4 3
18 19 20 18 15 14 14 15 14 15 17 19 20 21 21 21 21 23 24 24 24 24 23 23 24 23 21 21 20 19 21 21 20 19 18 19 18 16 14 12 14 14 13 14 14 13 13 15 16 13 11 11 9 9 9 7 6 8 8 7 8 8 9 10 11 11 12 12 13 14 14 14 14 15 14 13 13 12 11 11 9 7 6 5 5
20 20 21 21 18 16 16 14 14 16 17 18 20 21 22 22 23 24 26 26 26 24 23 22 22 21 19 20 22 21 22 20 18 17 16 16 16 15 14 15 15 15 14 14 15 15 14 15 15 14 12 11 9 10 11 8 6 6 8 8 7 7 8 10 11 11 12 13 14 15 15 15 16 16 15 13 12 12 13 13 10 7 7 5 4
21 20 20 22 21 19 17 16 15 16 17 18 20 21 22 23 23 23 25 27 27 25 22 20 19 19 17 19 22 21 19 18 17 17 17 17 17 17 16 16 17 17 15 15 15 17 17 16 15 14 12 11 11 12 12 10 8 8 8 8 7 7 8 9 10 11 12 13 14 15 14 15 17 17 17 16 15 14 14 14 11 9 7 3 2
22 20 20 21 22 22 20 19 18 16 17 18 20 20 21 23 23 22 23 25 25 25 23 21 20 19 18 19 20 19 17 16 17 17 17 17 17 17 16 16 17 17 16 16 16 16 17 17 15 14 13 12 13 12 10 10 10 8 7 7 7 7 6 7 8 10 11 12 13 14 14 14 15 15 15 15 16 15 14 12 10 8 4 1 3
24 22 20 20 21 22 21 21 20 19 18 18 19 20 22 23 23 23 23 24 24 24 24 23 23 21 20 20 19 17 16 16 16 16 16 16 16 16 16 16 17 17 16 15 15 15 15 15 15 15 14 13 12 11 10 10 10 9 8 8 6 4 5 7 9 9 10 10 10 12 14 13 12 11 10 11 13 12 11 10 8 4 1 2 2
25 23 20 20 19 21 22 21 21 20 18 18 18 20 22 23 23 24 25 26 25 25 24 23 22 20 19 20 19 17 16 16 16 16 16 15 15 16 16 15 16 16 15 15 14 14 14 14 15 15 16 14 12 12 11 10 9 9 10 10 8 5 5 7 7 6 8 9 9 10 11 11 10 9 9 8 8 7 6 6 3 1 0 2 3
25 23 21 20 19 19 22 21 20 19 18 17 18 19 21 22 23 23 24 25 26 25 23 20 18 17 17 18 18 18 17 17 17 17 16 15 15 15 14 15 15 14 14 14 13 12 12 11 13 14 14 13 13 14 14 12 10 9 9 11 11 9 7 6 5 5 7 8 9 9 8 8 8 8 8 5 4 4 4 4 3 1 1 2 3
25 23 22 21 20 19 21 19 18 19 18 17 18 19 20 23 23 22 22 23 23 23 22 19 17 16 16 16 16 17 17 17 16 16 15 15 15 15 14 14 14 13 13 12 11 11 10 11 12 13 11 10 10 12 13 13 11 9 9 10 10 10 9 8 7 6 6 7 8 9 9 9 8 7 7 5 2 3 1 1 3 3 2 2 2
26 24 22 21 20 20 21 19 18 18 18 18 19 19 20 21 22 21 21 21 20 20 19 19 17 16 16 16 17 17 16 17 16 16 16 15 14 14 14 14 13 13 12 11 10 10 10 11 11 11 11 10 10 10 12 12 12 10 10 9 9 10 10 10 10 8 8 9 9 9 9 10 9 8 8 7 4 2 1 0 2 3 3 2 1
25 24 22 21 21 20 21 20 18 18 19 18 17 18 19 20 21 21 20 19 19 18 18 20 18 17 17 17 17 17 16 17 17 17 17 15 15 15 15 15 14 14 11 10 11 10 9 10 10 11 11 11 11 12 12 13 12 11 10 9 9 10 11 12 11 10 10 11 10 9 9 9 9 7 7 7 5 3 3 1 1 2 2 2 2
24 25 23 22 21 21 20 20 18 18 20 19 18 18 19 20 21 21 20 19 19 18 18 20 19 19 20 18 17 16 16 16 15 16 16 15 13 13 14 14 15 15 13 11 12 11 10 9 11 13 12 11 11 11 12 13 12 11 11 10 10 11 12 13 12 10 9 10 11 9 7 8 9 6 4 5 6 4 2 2 1 1 3 4 3
Wind_Direction
144 152 151 153 157 156 146 142 144 144 145 145 143 142 140 137 133 129 125 122 121 122 126 123 117 116 123 130 122 97 89 82 79 77 73 83 96 100 98 95 93 90 84 70 72 85 86 84 81 78 76 75 76 77 81 93 107 114 116 115 111 102 95 91 86 82 78 76 77 79 81 83 82 79 74 70 70 76 85 85 58 30 15 44 61
151 151 150 152 156 154 145 142 143 144 145 145 146 145 143 139 136 132 129 130 130 130 131 130 136 147 155 156 146 108 96 91 88 77 84 105 107 104 102 97 96 93 87 74 75 89 90 88 86 81 77 75 77 78 79 82 88 100 113 119 115 105 96 87 79 72 69 67 63 61 63 73 75 70 65 66 72 90 105 119 70 3 8 51 71
161 153 153 151 152 155 147 144 144 145 145 145 148 146 145 141 138 137 135 138 138 136 136 142 163 178 184 182 153 121 103 99 84 86 109 116 113 109 106 100 98 93 87 78 79 91 95 93 89 82 78 77 81 83 83 82 82 87 102 121 118 107 97 87 77 67 64 62 64 57 47 49 53 57 62 69 79 99 114 118 4 359 31 60 72
171 156 155 154 153 157 151 147 146 147 147 146 149 149 148 146 145 144 141 141 144 142 142 150 168 185 188 185 154 123 113 102 89 112 121 119 116 113 108 104 98 93 87 81 86 95 98 99 93 84 80 82 86 87 85 84 83 82 88 107 120 113 99 88 78 70 66 62 64 46 31 32 20 27 53 75 87 91 92 58 39 45 62 69 75
178 165 158 159 159 158 155 150 149 151 152 151 152 155 153 153 154 153 149 142 143 147 146 151 164 180 180 174 149 128 118 103 115 122 120 118 117 114 108 103 96 93 91 86 90 96 98 102 97 86 83 86 88 86 84 83 80 81 81 89 114 115 99 88 79 73 70 71 72 49 19 22 22 23 38 66 83 70 64 60 59 62 66 73 83
181 172 165 164 162 158 157 154 153 156 158 159 158 161 161 161 162 160 158 148 147 149 147 154 168 172 169 165 149 131 113 114 125 121 119 121 120 115 108 104 99 96 94 91 88 90 93 99 99 90 91 91 87 85 84 81 80 84 84 87 104 112 103 92 82 74 70 74 78 65 33 13 10 15 35 45 63 70 70 72 70 69 73 76 85
186 179 177 171 165 162 163 162 158 159 161 164 164 166 166 167 169 165 162 158 154 152 152 158 169 172 169 161 149 130 116 129 127 118 120 124 125 118 110 106 103 98 96 95 89 85 86 96 105 101 99 93 88 85 84 83 84 90 91 92 99 105 103 95 85 74 67 57 55 81 49 358 342 344 37 42 61 86 81 81 82 83 87 77 81
187 187 190 174 168 168 166 164 159 160 165 168 170 170 172 173 172 170 166 167 163 157 162 163 165 172 172 160 148 130 128 138 126 120 121 125 127 118 112 110 105 101 98 98 93 88 88 99 110 108 101 95 91 86 84 86 90 95 98 98 100 102 98 94 90 82 72 60 77 113 76 338 327 320 53 53 81 98 87 88 97 101 97 86 89
188 191 194 176 168 167 164 164 164 165 170 174 176 175 178 179 177 176 173 175 175 165 166 166 169 171 168 162 149 132 140 140 126 126 125 127 128 119 116 112 108 104 101 102 100 97 97 105 110 109 103 98 94 88 87 91 95 98 101 102 100 97 91 88 87 92 89 78 113 142 301 300 306 319 81 62 94 109 103 100 118 129 105 95 93
190 188 193 180 171 169 165 167 170 170 173 177 180 180 181 183 182 181 178 182 185 173 172 174 175 170 167 166 151 140 148 140 129 132 130 131 130 122 120 116 112 110 108 107 106 105 107 110 109 109 106 101 96 91 90 94 100 100 101 101 98 95 93 90 86 94 92 77 154 246 288 280 298 350 73 70 95 120 127 121 133 151 106 95 99
197 185 193 184 179 178 171 169 172 173 175 180 179 182 183 185 187 187 184 187 191 180 180 183 176 170 171 169 151 150 150 141 137 137 134 135 132 124 121 120 119 117 119 117 115 113 114 116 113 113 108 102 98 94 91 95 103 102 101 99 97 94 92 93 90 90 83 63 108 111 258 262 287 323 347 78 108 132 150 157 177 174 103 95 104
207 187 192 186 186 185 177 173 174 176 176 181 180 182 185 188 189 191 190 192 196 185 185 190 180 172 175 169 156 157 150 145 144 144 141 140 136 129 125 121 121 123 126 131 130 124 123 122 119 116 109 105 100 96 90 94 103 104 104 101 99 94 90 89 86 84 82 99 101 109 214 305 301 307 308 234 174 169 179 189 215 172 109 103 106
214 195 191 188 191 188 184 182 179 181 179 179 177 181 184 186 188 192 195 197 200 192 186 190 186 174 171 168 163 159 152 152 150 148 146 142 138 134 130 125 123 125 137 152 150 137 131 129 126 120 114 109 101 97 92 96 102 103 103 101 101 97 95 92 89 90 96 118 131 194 258 327 319 308 294 161 160 175 187 199 212 149 108 109 109
216 206 197 191 196 191 189 188 185 184 183 182 174 178 179 182 187 192 197 197 201 199 186 184 190 176 166 169 165 158 158 162 156 151 151 146 143 141 135 128 125 131 151 168 178 156 138 137 133 125 119 112 103 99 95 98 100 102 102 99 102 100 97 95 96 96 106 142 213 248 290 336 333 290 122 124 130 150 163 179 196 174 116 119 117
214 214 208 201 200 194 192 190 188 188 185 181 173 176 176 182 187 192 198 196 197 198 190 184 188 177 168 170 162 159 166 169 163 157 158 156 152 150 143 130 117 134 155 168 184 167 146 144 139 131 123 114 107 103 97 95 92 99 106 103 106 102 97 99 103 96 99 169 275 325 337 345 350 183 131 120 124 133 135 145 172 177 144 127 119
209 207 213 214 207 194 193 191 190 194 188 178 173 173 175 184 186 191 198 196 193 191 190 185 185 184 176 166 159 166 173 175 175 170 168 167 163 161 155 137 104 129 156 167 176 164 152 149 143 136 126 118 111 106 100 94 89 99 110 110 106 100 100 102 106 102 113 177 273 341 352 349 356 32 114 120 127 133 136 133 145 154 139 128 120
205 202 210 215 211 197 195 193 192 193 188 179 172 169 176 186 186 188 193 195 194 188 186 184 184 189 177 159 164 178 175 180 184 183 180 176 173 172 168 146 87 121 152 166 168 162 157 151 145 140 131 123 116 108 101 95 90 101 116 115 107 105 104 101 102 104 135 200 250 310 344 347 354 21 87 119 133 137 143 141 143 145 132 129 126
202 200 204 209 207 198 197 195 191 188 183 179 174 171 178 186 188 188 190 195 195 187 184 184 186 186 172 162 176 187 179 183 186 192 191 182 186 183 177 156 64 102 136 157 162 160 157 152 148 145 137 129 121 113 107 102 94 105 121 118 113 114 109 105 103 112 163 226 260 291 326 339 347 10 67 95 119 130 136 137 144 148 133 128 127
201 196 196 202 199 194 197 198 192 186 181 181 181 178 178 183 188 193 193 193 192 189 187 185 187 184 172 170 183 189 183 183 186 197 193 187 204 199 185 135 58 95 129 147 155 156 155 154 152 148 142 136 127 120 115 112 102 110 122 120 118 114 111 104 100 133 188 252 280 288 306 328 344 356 72 91 105 114 112 115 134 142 131 126 126
200 195 194 195 192 193 193 195 191 186 182 183 187 186 183 185 189 196 196 189 188 189 190 187 186 184 177 176 184 189 184 184 190 195 191 197 218 215 207 11 50 94 133 146 152 155 156 156 156 152 148 144 136 130 124 115 106 112 125 128 124 116 107 89 87 149 220 281 297 293 300 319 341 352 88 111 109 111 107 112 129 132 126 126 125
198 194 195 193 189 190 186 186 187 189 188 185 191 192 187 189 192 199 198 188 188 187 189 191 184 182 180 178 184 190 187 185 188 187 189 204 216 216 225 331 38 93 135 151 154 156 159 160 159 154 155 155 146 140 129 113 98 99 125 139 137 141 122 97 100 158 240 271 290 301 305 312 308 16 93 126 124 124 122 122 129 127 125 126 125
199 195 191 191 190 185 185 185 183 191 195 190 194 195 191 194 196 201 204 195 190 191 192 191 181 175 177 179 187 192 190 189 186 184 189 201 210 223 245 312 47 100 129 152 160 162 164 164 161 159 165 163 158 151 126 101 94 92 103 124 127 129 116 108 119 173 259 271 289 295 296 296 242 182 120 136 136 134 133 133 133 131 129 127 128
201 196 190 187 189 189 194 193 187 191 196 195 196 196 193 197 198 198 206 202 194 196 195 188 177 170 174 183 189 191 192 192 185 184 192 197 204 224 249 279 107 123 132 146 159 166 168 170 169 170 175 171 170 152 108 61 68 83 71 86 100 91 94 102 112 232 265 273 290 290 287 267 214 191 138 139 147 147 146 144 141 139 137 134 134
202 194 188 182 192 198 197 195 191 190 191 194 196 196 192 196 199 196 205 208 200 198 193 184 175 171 178 186 188 191 194 193 189 190 193 193 200 222 226 192 164 149 140 144 151 161 169 175 179 182 182 177 175 142 137 282 321 18 47 72 70 71 87 107 112 251 262 262 289 300 288 244 205 188 150 134 147 158 158 152 147 147 145 142 140
204 195 185 184 199 201 194 194 195 191 190 191 195 197 195 196 198 199 210 210 204 200 191 184 178 173 180 188 188 194 198 192 192 198 197 193 199 222 223 196 185 171 151 142 138 149 169 176 179 183 184 176 159 125 154 238 288 316 316 53 61 79 154 142 143 227 255 267 300 324 297 228 201 189 162 140 140 149 154 152 151 150 151 151 149
206 199 184 191 203 198 193 198 197 194 193 192 192 195 198 202 200 204 213 209 204 202 194 187 185 178 179 186 185 192 200 195 193 195 196 195 197 216 225 205 195 182 163 145 117 81 166 172 168 167 168 157 133 116 152 208 254 281 293 6 105 177 199 195 197 223 247 283 309 327 294 201 188 186 169 156 146 142 145 148 153 151 152 154 153
205 200 184 196 203 195 196 199 199 197 197 196 194 196 201 205 204 206 211 210 206 204 197 190 188 182 180 186 185 185 194 198 192 185 190 193 196 219 233 214 197 184 151 160 185 348 78 143 141 141 133 114 106 172 201 213 221 225 239 229 204 209 196 190 229 250 256 295 314 311 259 190 181 181 173 166 161 155 152 149 150 148 150 152 151
201 198 187 201 206 196 197 200 200 202 203 203 201 200 204 208 208 208 212 212 208 204 199 193 189 185 181 188 192 186 187 193 190 183 191 192 189 209 225 224 198 200 162 156 206 259 193 84 80 191 156 168 210 209 207 222 220 202 227 239 215 212 204 193 194 245 265 287 316 309 227 196 178 175 173 170 173 171 169 163 159 154 150 151 150
202 200 191 203 211 197 196 201 206 210 210 208 207 208 208 213 213 212 215 211 205 203 202 198 192 186 183 188 193 191 192 194 194 188 188 191 179 185 219 235 204 203 186 152 196 231 199 212 210 200 195 190 202 206 198 216 230 211 221 239 232 229 225 209 183 210 268 278 301 313 218 216 192 182 181 179 183 182 183 179 176 169 161 161 157
210 205 197 206 215 199 194 197 206 213 214 212 213 213 211 214 215 216 218 213 205 201 202 199 192 186 186 190 186 190 206 208 205 197 195 204 202 194 215 237 201 203 212 170 192 202 185 200 198 190 192 193 195 203 201 204 228 220 212 227 223 231 225 217 183 188 251 262 267 9 54 316 201 207 208 204 202 194 192 188 186 180 173 176 172
214 208 202 212 213 202 196 195 203 210 213 215 213 212 212 215 216 218 219 215 209 202 202 199 195 191 187 191 188 189 202 208 202 198 200 199 203 205 206 213 197 208 217 194 199 194 184 193 196 194 185 192 198 195 205 203 214 218 212 217 205 215 221 221 196 186 232 251 245 257 354 33 43 290 224 223 222 211 202 193 190 184 177 180 182
215 217 208 212 209 203 201 199 206 208 210 213 211 208 213 220 219 218 218 215 212 208 206 202 202 200 190 195 199 194 196 204 201 197 200 193 195 204 196 199 203 212 214 202 208 194 186 195 194 200 184 181 199 189 199 207 202 205 206 208 197 195 199 208 208 192 227 254 254 256 277 286 284 315 235 220 226 222 216 203 194 190 184 181 184
210 222 210 206 205 204 205 204 207 208 209 211 210 208 213 220 216 213 215 214 213 212 210 204 207 207 198 202 207 200 196 202 201 197 200 195 195 193 185 204 208 216 219 201 212 198 188 206 193 198 191 177 195 194 200 210 205 207 209 212 204 197 192 191 203 195 211 253 260 261 273 272 262 266 268 244 211 220 222 214 203 197 195 191 193
201 222 212 201 201 202 205 207 209 210 210 211 212 211 211 215 211 208 213 215 214 213 213 209 208 206 203 206 207 204 203 207 205 200 201 196 196 188 183 205 199 215 231 202 215 210 189 210 198 187 199 186 194 206 210 212 215 218 214 214 211 212 208 199 205 199 194 225 250 265 276 268 260 265 263 254 238 228 220 217 209 202 206 206 206
197 224 214 198 200 199 205 210 212 213 214 215 217 214 210 212 212 215 218 217 214 213 214 213 209 205 204 205 204 205 206 209 210 206 206 202 201 195 188 197 189 202 227 204 211 219 198 204 197 187 206 203 202 216 221 217 219 225 223 223 223 224 220 210 211 206 199 210 230 259 272 266 263 267 264 260 249 242 228 214 200 190 205 213 218
191 219 215 198 200 201 209 216 215 214 216 220 221 218 215 217 215 216 219 217 214 213 212 210 208 205 204 206 204 206 208 211 212 207 209 208 207 206 193 185 192 205 217 209 206 218 214 200 192 201 210 204 214 230 235 229 226 231 237 240 240 233 221 217 217 210 212 213 208 241 264 267 270 271 266 263 254 251 243 221 197 137 142 190 204
190 206 213 203 202 205 212 215 215 215 217 219 220 218 219 221 215 213 217 213 212 213 208 205 206 205 206 212 208 206 210 211 211 210 211 211 207 211 198 180 199 215 215 219 211 207 224 214 197 204 208 198 217 245 247 240 237 241 246 246 247 242 224 221 226 219 218 214 202 228 258 263 267 271 270 265 253 255 260 241 223 194 174 170 169
193 194 203 203 201 210 210 209 214 217 217 215 211 210 214 218 216 214 213 208 209 210 204 203 207 208 208 214 211 207 212 212 212 215 215 214 209 210 207 194 206 217 208 217 215 197 215 232 213 205 210 196 204 250 255 245 244 244 248 251 251 248 233 223 229 226 217 217 212 218 244 254 262 265 262 263 258 256 257 250 245 221 203 203 205
197 186 192 197 195 207 207 202 210 215 215 213 204 201 209 216 216 213 208 203 204 204 204 206 207 209 209 211 212 209 213 215 215 219 218 216 214 212 212 207 208 214 208 215 218 202 206 233 232 223 220 203 197 245 258 254 252 247 249 258 257 251 244 232 230 229 224 227 223 216 230 244 256 260 254 256 259 256 250 250 258 251 226 209 211
197 181 181 194 195 199 205 205 208 213 215 214 208 204 208 212 212 209 204 200 198 198 200 204 203 206 209 209 211 209 210 214 216 217 215 211 214 214 213 211 211 215 217 220 220 210 207 223 236 237 233 220 209 234 260 266 263 259 256 262 266 257 247 239 238 238 235 234 230 226 231 235 240 250 250 250 253 253 250 255 258 255 245 226 222
194 183 179 191 197 196 203 209 212 215 218 220 217 211 209 209 208 206 202 199 194 191 194 197 201 204 206 208 209 208 207 210 212 212 209 207 211 214 212 211 215 217 221 222 213 207 216 227 235 237 232 232 224 231 255 262 261 269 266 258 261 260 249 243 244 245 243 239 236 234 237 239 240 243 247 249 252 250 249 253 249 250 254 241 239
199 190 180 184 192 199 204 208 214 216 218 222 218 211 211 211 210 206 203 200 194 191 191 192 200 203 201 203 205 207 207 205 206 209 206 205 208 215 213 211 215 219 220 221 211 202 211 225 232 232 226 230 230 228 236 233 229 250 260 260 259 258 250 247 250 251 251 246 241 242 245 252 250 249 252 252 250 247 248 249 241 244 246 222 228
203 197 186 180 184 195 203 205 210 212 210 213 211 210 212 210 209 206 201 201 199 197 193 192 199 201 199 205 205 204 204 203 204 205 204 203 205 212 215 210 215 221 220 222 219 208 206 214 225 229 226 227 228 229 229 229 233 238 247 259 262 268 266 263 262 260 261 256 247 245 250 258 258 259 263 261 261 259 252 246 232 238 248 216 256
204 202 193 184 182 189 200 203 201 204 207 205 207 210 208 202 202 203 201 201 203 202 201 202 204 203 207 215 210 202 201 204 206 202 201 201 202 209 215 213 216 222 222 223 225 221 216 217 224 226 223 218 223 233 232 232 246 245 245 255 263 283 289 285 283 272 267 261 254 251 252 258 262 270 273 269 274 271 260 256 242 246 273 246 291
205 208 202 192 186 185 195 205 201 200 204 204 207 208 205 200 196 197 198 199 200 201 202 205 205 205 212 215 212 208 206 204 204 201 200 201 202 208 214 217 220 223 225 226 228 229 225 226 231 232 230 225 223 232 233 238 248 245 249 256 259 287 294 289 290 282 271 263 261 258 252 258 268 277 279 274 284 283 266 260 244 236 274 158 240
207 211 208 197 193 186 189 204 206 200 198 203 209 206 203 202 196 194 195 196 196 196 198 200 201 203 211 216 216 214 209 204 204 202 201 201 203 210 215 219 223 224 226 228 231 232 231 232 236 239 242 241 236 235 238 245 248 245 249 250 246 263 288 292 293 284 276 267 263 256 249 257 262 263 268 268 281 289 281 279 253 183 343 219 253
208 210 208 201 197 188 188 200 206 201 198 201 205 203 201 201 201 200 198 197 197 197 200 203 202 203 209 214 214 210 206 206 207 206 205 205 206 211 216 220 225 228 228 230 234 236 236 236 240 244 243 240 239 240 242 245 246 245 243 240 240 246 265 286 289 281 280 273 263 256 257 269 266 262 271 269 254 256 280 306 310 313 300 262 270
207 208 209 206 200 191 189 197 202 198 197 200 201 202 202 200 202 202 198 198 199 198 200 203 204 206 210 209 206 204 205 208 209 209 209 211 213 215 219 223 227 233 236 236 239 242 239 238 243 245 238 231 235 239 240 241 243 242 232 231 235 237 248 256 253 258 268 273 264 253 258 267 264 265 274 275 249 237 257 315 288 281 266 261 265
208 212 212 208 203 196 192 193 196 192 193 201 202 201 203 201 200 199 196 196 199 199 198 201 205 208 210 208 207 208 209 211 211 211 211 212 215 219 224 228 229 233 240 243 243 245 243 241 243 242 236 235 235 233 235 235 236 236 227 223 227 229 237 241 239 239 243 255 256 243 245 248 245 252 257 253 240 219 173 129 293 266 226 220 238
207 211 212 209 204 201 195 193 195 190 191 202 206 202 201 199 196 193 191 191 196 200 200 204 207 206 207 207 210 214 215 218 219 218 218 215 217 222 224 230 231 232 238 243 244 244 242 244 243 238 236 237 235 229 227 227 228 232 228 221 221 223 229 233 228 224 230 240 240 234 233 232 233 239 235 231 232 217 171 153 300 251 200 150 144
204 208 211 209 205 204 199 195 194 190 191 198 204 201 196 195 193 191 190 190 197 203 203 206 205 203 207 208 212 218 220 223 225 224 221 215 219 227 228 231 233 232 235 239 244 243 237 241 243 238 233 231 234 227 221 224 224 226 224 219 220 222 227 232 223 214 227 238 238 238 234 228 230 226 202 204 220 217 168 168 233 155 140 127 131